EW0408 Weather Reports


Display with metric or nautical units.
time (UTC)temp
F
wind
direction
speed
MPH
gust
MPH
rain 1hr
in
rain 24hr
in
rain mn
in
humidity
%
barometer
mb
20260509120004 76 41 3.0 5.0 0.00 0.00 0.00 87 1013.6
20260509115003 76 28 3.0 5.0 0.00 0.00 0.00 88 1013.5
20260509114025 75 48 1.0 5.0 0.00 0.00 0.00 90 1013.6
20260509113004 73 0 0.0 0.0 0.00 0.00 0.00 92 1013.5
20260509112003 72 0 0.0 0.0 0.00 0.00 0.00 91 1013.5
20260509111003 72 0 0.0 0.0 0.00 0.00 0.00 91 1013.3
20260509110003 71 0 0.0 0.0 0.00 0.00 0.00 90 1013.2
20260509105024 71 0 0.0 0.0 0.00 0.00 0.00 90 1013.4
20260509104024 71 0 0.0 0.0 0.00 0.00 0.00 90 1013.2
20260509103003 71 0 0.0 0.0 0.00 0.00 0.00 89 1013.2
20260509102004 72 0 0.0 0.0 0.00 0.00 0.00 89 1013.2
20260509101003 72 0 0.0 0.0 0.00 0.00 0.00 89 1013.0
20260509100024 72 0 0.0 0.0 0.00 0.00 0.00 89 1013.0
20260509095004 72 0 0.0 0.0 0.00 0.00 0.00 89 1012.9
20260509094004 72 0 0.0 0.0 0.00 0.00 0.00 88 1012.9
20260509093004 72 0 0.0 0.0 0.00 0.00 0.00 88 1013.0
20260509092004 73 0 0.0 0.0 0.00 0.00 0.00 88 1012.9
20260509091005 73 0 0.0 0.0 0.00 0.00 0.00 87 1012.9
20260509090026 73 0 0.0 0.0 0.00 0.00 0.00 87 1013.0
20260509085005 74 0 0.0 0.0 0.00 0.00 0.00 86 1013.0
20260509084004 73 0 0.0 0.0 0.00 0.00 0.00 86 1013.0
20260509083004 74 0 0.0 0.0 0.00 0.00 0.00 85 1013.2
20260509082004 74 0 0.0 0.0 0.00 0.00 0.00 85 1013.2
20260509081027 74 0 0.0 0.0 0.00 0.00 0.00 85 1013.4
20260509080005 74 0 0.0 0.0 0.00 0.00 0.00 84 1013.5
20260509075025 75 290 0.0 4.0 0.00 0.00 0.00 83 1013.4
20260509074005 75 291 1.0 3.0 0.00 0.00 0.00 83 1013.5
20260509073005 75 293 1.0 5.0 0.00 0.00 0.00 83 1013.4
20260509072005 75 283 1.0 4.0 0.00 0.00 0.00 82 1013.4
20260509071005 75 283 1.0 4.0 0.00 0.00 0.00 82 1013.5
20260509070006 75 286 2.0 6.0 0.00 0.00 0.00 82 1013.6
20260509065004 76 283 2.0 7.0 0.00 0.00 0.00 81 1013.5
20260509064005 76 285 2.0 5.0 0.00 0.00 0.00 80 1013.6
20260509063026 76 285 3.0 6.0 0.00 0.00 0.00 80 1013.7
20260509062004 76 285 2.0 4.0 0.00 0.00 0.00 79 1013.8
20260509061004 77 291 1.0 5.0 0.00 0.00 0.00 78 1013.8
20260509060005 77 0 0.0 0.0 0.00 0.00 0.00 76 1014.0
20260509055005 77 309 0.0 4.0 0.00 0.00 0.00 75 1014.1
20260509054005 78 280 2.0 5.0 0.00 0.00 0.00 74 1014.1
20260509053005 78 281 3.0 7.0 0.00 0.00 0.00 74 1014.1
20260509052005 78 288 3.0 7.0 0.00 0.00 0.00 73 1014.4
20260509051005 78 285 2.0 4.0 0.00 0.00 0.00 72 1014.4
20260509050026 79 286 1.0 3.0 0.00 0.00 0.00 71 1014.4
20260509045005 79 301 0.0 6.0 0.00 0.00 0.00 71 1014.5
20260509044004 80 334 1.0 5.0 0.00 0.00 0.00 72 1014.4
20260509043005 80 353 0.0 3.0 0.00 0.00 0.00 72 1014.4
20260509042025 80 280 0.0 4.0 0.00 0.00 0.00 71 1014.3
20260509041004 80 289 1.0 6.0 0.00 0.00 0.00 70 1014.2
20260509040005 80 294 1.0 5.0 0.00 0.00 0.00 69 1014.4
20260509035005 81 307 0.0 1.0 0.00 0.00 0.00 69 1014.4
20260509034005 81 0 0.0 0.0 0.00 0.00 0.00 68 1014.6
20260509033005 82 0 0.0 0.0 0.00 0.00 0.00 68 1014.7
20260509032005 82 309 0.0 4.0 0.00 0.00 0.00 66 1014.6
20260509031005 83 312 1.0 4.0 0.00 0.00 0.00 66 1014.6
20260509030004 84 338 2.0 7.0 0.00 0.00 0.00 65 1014.6
20260509025005 84 300 0.0 1.0 0.00 0.00 0.00 66 1014.6
20260509024005 84 283 0.0 2.0 0.00 0.00 0.00 65 1014.6
20260509023005 84 0 0.0 0.0 0.00 0.00 0.00 64 1014.5
20260509022005 84 0 0.0 0.0 0.00 0.00 0.00 64 1014.4
20260509021005 85 282 0.0 2.0 0.00 0.00 0.00 63 1014.3
20260509020005 85 282 1.0 4.0 0.00 0.00 0.00 63 1014.2
20260509015005 85 282 0.0 3.0 0.00 0.00 0.00 63 1014.1
20260509014004 85 286 1.0 5.0 0.00 0.00 0.00 61 1013.7
20260509013005 86 289 1.0 7.0 0.00 0.00 0.00 61 1013.7
20260509012004 86 290 2.0 8.0 0.00 0.00 0.00 60 1013.5
20260509011005 87 206 2.0 7.0 0.00 0.00 0.00 60 1013.5
20260509010026 86 162 0.0 3.0 0.00 0.00 0.00 60 1013.1
20260509005005 86 161 0.0 3.0 0.00 0.00 0.00 60 1012.9
20260509004004 86 160 0.0 2.0 0.00 0.00 0.00 60 1012.7
20260509003004 86 0 0.0 0.0 0.00 0.00 0.00 61 1012.3
20260509002004 87 0 0.0 0.0 0.00 0.00 0.00 59 1012.1
20260509001005 87 0 0.0 0.0 0.00 0.00 0.00 59 1012.1
20260509000004 89 0 0.0 0.0 0.00 0.00 0.00 58 1012.0
20260508235004 90 0 0.0 0.0 0.00 0.00 0.00 57 1011.8
20260508234004 91 148 0.0 1.0 0.00 0.00 0.00 56 1011.7
20260508233005 92 0 0.0 0.0 0.00 0.00 0.00 56 1011.5
20260508232005 92 0 0.0 0.0 0.00 0.00 0.00 53 1011.5
20260508231004 93 0 0.0 0.0 0.00 0.00 0.00 55 1011.4
20260508230005 93 0 0.0 0.0 0.00 0.00 0.00 51 1011.3
20260508225006 93 0 0.0 0.0 0.00 0.00 0.00 49 1011.3
20260508224004 93 0 0.0 0.0 0.00 0.00 0.00 51 1011.2
20260508223004 93 0 0.0 0.0 0.00 0.00 0.00 52 1011.2
20260508222004 93 0 0.0 0.0 0.00 0.00 0.00 53 1011.2
20260508221005 93 0 0.0 0.0 0.00 0.00 0.00 53 1011.2
20260508220004 93 0 0.0 0.0 0.00 0.00 0.00 55 1011.2
20260508215004 92 0 0.0 0.0 0.00 0.00 0.00 55 1011.2
20260508214005 92 110 0.0 1.0 0.00 0.00 0.00 55 1011.2
20260508213004 92 0 0.0 0.0 0.00 0.00 0.00 54 1011.4
20260508212005 92 0 0.0 0.0 0.00 0.00 0.00 51 1011.3
20260508211004 93 0 0.0 0.0 0.00 0.00 0.00 55 1011.5
20260508210025 93 113 0.0 1.0 0.00 0.00 0.00 53 1011.6
20260508205005 93 0 0.0 0.0 0.00 0.00 0.00 50 1011.6
20260508204004 94 0 0.0 0.0 0.00 0.00 0.00 52 1011.8
20260508203025 93 80 1.0 4.0 0.00 0.00 0.00 51 1011.7
20260508202004 93 90 0.0 3.0 0.00 0.00 0.00 54 1011.9
20260508201004 93 0 0.0 0.0 0.00 0.00 0.00 53 1012.2
20260508200005 93 0 0.0 0.0 0.00 0.00 0.00 55 1012.4
20260508195004 92 0 0.0 0.0 0.00 0.00 0.00 60 1012.5
20260508194005 91 0 0.0 0.0 0.00 0.00 0.00 57 1012.6
20260508193005 91 0 0.0 0.0 0.00 0.00 0.00 57 1012.7
20260508192025 91 0 0.0 0.0 0.00 0.00 0.00 58 1012.9
20260508191005 90 0 0.0 0.0 0.00 0.00 0.00 58 1013.2
20260508190004 91 112 0.0 2.0 0.00 0.00 0.00 56 1013.3
20260508185004 92 90 1.0 3.0 0.00 0.00 0.00 57 1013.7
20260508184004 92 92 2.0 4.0 0.00 0.00 0.00 55 1013.7
20260508183004 90 94 1.0 4.0 0.00 0.00 0.00 58 1013.9
20260508182004 90 99 0.0 4.0 0.00 0.00 0.00 60 1014.0
20260508181004 90 157 0.0 4.0 0.00 0.00 0.00 58 1014.3
20260508180004 91 80 1.0 4.0 0.00 0.00 0.00 58 1014.3
20260508175005 90 61 2.0 4.0 0.00 0.00 0.00 61 1014.2
20260508174004 90 73 2.0 5.0 0.00 0.00 0.00 59 1014.4
20260508173025 89 54 1.0 5.0 0.00 0.00 0.00 63 1014.4
20260508172004 89 92 0.0 3.0 0.00 0.00 0.00 63 1014.6
20260508171004 87 95 0.0 2.0 0.00 0.00 0.00 64 1014.9
20260508170004 87 64 3.0 5.0 0.00 0.00 0.00 64 1015.1
20260508165025 86 51 4.0 7.0 0.00 0.00 0.00 63 1015.2
20260508164004 88 47 3.0 8.0 0.00 0.00 0.00 61 1015.3
20260508163004 87 45 3.0 5.0 0.00 0.00 0.00 66 1015.7
20260508162004 86 50 3.0 6.0 0.00 0.00 0.00 64 1015.8
20260508161026 86 54 4.0 7.0 0.00 0.00 0.00 64 1015.8
20260508160005 85 42 2.0 5.0 0.00 0.00 0.00 65 1016.1
20260508155026 86 36 2.0 5.0 0.00 0.00 0.00 65 1016.2
20260508154004 86 329 1.0 6.0 0.00 0.00 0.00 65 1016.4
20260508153004 85 26 2.0 5.0 0.00 0.00 0.00 65 1016.3
20260508152004 85 40 3.0 7.0 0.00 0.00 0.00 67 1016.2
20260508151004 84 26 4.0 10.0 0.00 0.00 0.00 68 1016.3
20260508150005 83 254 2.0 6.0 0.00 0.00 0.00 70 1016.5
20260508145005 84 27 2.0 6.0 0.00 0.00 0.00 72 1016.3
20260508144004 83 0 0.0 0.0 0.00 0.00 0.00 72 1016.5
20260508143004 82 0 0.0 0.0 0.00 0.00 0.00 75 1016.6
20260508142004 82 26 0.0 1.0 0.00 0.00 0.00 75 1016.6
20260508141004 82 0 0.0 0.0 0.00 0.00 0.00 75 1016.6
20260508140004 82 11 0.0 1.0 0.00 0.00 0.00 77 1016.6
20260508135005 82 0 0.0 0.0 0.00 0.00 0.00 77 1016.5
20260508134004 80 50 0.0 1.0 0.00 0.00 0.00 79 1016.4
20260508133005 80 0 0.0 0.0 0.00 0.00 0.00 79 1016.4
20260508132005 79 282 0.0 1.0 0.00 0.00 0.00 80 1016.3
20260508131004 78 291 0.0 1.0 0.00 0.00 0.00 81 1016.3
20260508130004 77 284 0.0 1.0 0.00 0.00 0.00 86 1016.4
20260508125004 75 0 0.0 0.0 0.00 0.00 0.00 88 1016.2
20260508124004 74 0 0.0 0.0 0.00 0.00 0.00 89 1016.2
20260508123004 73 0 0.0 0.0 0.00 0.00 0.00 91 1016.2
20260508122026 72 0 0.0 0.0 0.00 0.00 0.00 92 1016.2
20260508121025 71 0 0.0 0.0 0.00 0.00 0.00 92 1016.0